Terminal Aerodrome Forecast
Issued by NWS Duluth, MN

Home | Current Version | Previous Version | Text Only | Print | Product List | Glossary On
Versions: 1 2 3 4 5 6 7 8 9 10 11 12 13 14 15 16 17 18 19 20 21 22 23 24 25 26 27 28 29 30 31 32
000
FTUS43 KDLH 271700
TAFDLH
TAF
KDLH 271720Z 2718/2818 18005KT P6SM SCT007 OVC010
     FM280300 17004KT P6SM OVC007
     FM281500 14007KT 4SM BR OVC005=

USA.gov is the U.S. government's official web portal to all federal, state and local government web resources and services.